OneWeb SL0124

operational
NORAD ID: 47276 Int'l Des: 2020-100 Owner: ONEWEB Country: UK Constellation: oneweb
LEOCIRCULARPOLARONEWEB_TYPE

关于 OneWeb SL0124

正在加载描述...

实时位置

正在加载3D地球...

即将过境

高度历史

Altitude vs Time

uPlot chart will show altitude changes over time

两行轨道根数

1 47276U 20100U 26036.22333202 .00000161 00000-0 41269-3 0 9996
2 47276 87.8952 16.8423 0001766 88.3946 271.7385 13.12443200247331
Epoch: Feb 5, 2026 • Age: 7 hours

当前状态

高度 1222.2 km
速度 7.24 km/s
星下点 -21.28°S, 51.73°E
发射日期 Dec 18, 2020
运行时间 5.1 years
类型 internet

技术详情

分类 Payload
质量 148.00 kg
干质量 140.00 kg
总质量 148.00 kg
长度 1.30 m
直径 1.00 m
跨度 5.00 m
形状 Trapezoid+2 pan
制造商 ONEWUS
平台类型 ARROW
阶段状态 In Orbit
所有者/国家 ONEWEB/UK

大型星座

Loading constellations...